Location: Sweet Grass
(48.9965°N, 111.9649°W)
Time: 14:18:44
(UTC+00:00)

NOAA 19 - Visible Passes

Search period start: 27 March 2023 00:00
Search period end: 06 April 2023 00:00
Orbit: 839 x 861 km, 99.1° (Epoch: 27 March)

Date Brightness Start Highest point End Pass type
(mag) Time Alt. Az. Time Alt. Az. Time Alt. Az.
27 Mar 5.5 02:29:37 10° SE 02:34:53 49° ENE 02:40:08 10° N visible
27 Mar 7.0 04:11:01 10° SSW 04:15:45 29° W 04:20:29 10° NW visible
28 Mar 5.7 02:17:52 10° SE 02:22:56 40° ENE 02:28:00 10° N visible
28 Mar 6.6 03:58:36 10° SSW 04:03:37 36° W 04:08:39 10° NNW visible
29 Mar 6.2 03:46:18 10° S 03:51:32 45° W 03:56:46 10° NNW visible
30 Mar 5.8 03:34:05 10° S 03:39:27 56° WSW 03:44:50 10° NNW visible
31 Mar 5.5 03:21:56 10° S 03:27:23 69° WSW 03:32:52 10° NNW visible
31 Mar 8.0 05:07:44 10° W 05:09:03 11° W 05:10:22 10° WNW visible
01 Apr 5.2 03:09:52 10° SSE 03:15:21 85° WSW 03:20:52 10° NNW visible
01 Apr 7.8 04:54:02 10° WSW 04:56:49 14° W 04:59:36 10° NW visible
02 Apr 5.2 02:57:52 10° SSE 03:03:20 79° ENE 03:08:49 10° NNW visible
02 Apr 7.6 04:41:01 10° SW 04:44:37 18° W 04:48:13 10° NW visible
03 Apr 5.3 02:45:57 10° SSE 02:51:20 64° ENE 02:56:45 10° N visible
03 Apr 7.4 04:28:16 10° SW 04:32:27 22° W 04:36:37 10° NW visible
04 Apr 5.4 02:34:06 10° SE 02:39:22 52° ENE 02:44:39 10° N visible
04 Apr 7.1 04:15:41 10° SSW 04:20:17 27° W 04:24:54 10° NW visible
05 Apr 6.7 04:03:14 10° SSW 04:08:09 34° W 04:13:06 10° NNW visible
